Other Public Products
Issued by NWS Grand Forks, ND

Home | Current Version | Previous Version | Graphics & Text | Print | Product List | Glossary On
Versions: 1 2 3 4 5 6 7 8 9 10 11 12 13 14 15 16 17 18 19 20 21 22 23 24 25 26 27 28 29 30 31 32 33 34 35 36 37 38 39 40 41 42 43 44 45 46 47 48 49 50
000
FPUS83 KFGF 261631
OPUFGF
PRAIRIE TO PINES WEATHER ROUNDUP
NATIONAL WEATHER SERVICE EASTERN NORTH DAKOTA/GRAND FORKS ND
1000 AM CST THU FEB 26 2015

 **SATELLITE DATA USED TO AUGMENT SKY COVER AT AUTOMATED STATIONS**
 *****  WEATHER ACROSS EASTERN NORTH DAKOTA  *****

CITY           SKY/WX    TMP DP  RH WIND       PRES   REMARKS
GRAND FORKS    SUNNY     -3 -12  65 NW9       30.57S WCI -19
GRAND FORKS AF SUNNY     -3 -13  61 N12       30.56S WCI -20
GRAND CITY NWS   N/A      0 N/A N/A NW7         N/A  WCI -13
BUXTON           N/A     -3 -10  74 NW12        N/A  WCI -21
DEVILS LAKE    SUNNY    N/A N/A N/A MISG        N/A
FARGO          SUNNY     -3 -12  65 N15       30.57R WCI -23
WAHPETON ARPT  SUNNY      0 -13  55 N13       30.56S WCI -18
$$

 *****  WEATHER ACROSS CENTRAL AND WESTERN NORTH DAKOTA  *****

CITY           SKY/WX    TMP DP  RH WIND       PRES   REMARKS
JAMESTOWN      SUNNY     -7 -15  68 NW13      30.53R WCI -27
BISMARCK       SUNNY     -3 -13  62 NW8       30.58R WCI -18
MINOT          SUNNY     -8 -17  64 W13       30.55S WCI -28
MINOT AFB      SUNNY    -10 -17  71 NW14      30.56R WCI -32
GARRISON         N/A     -9 -16  71 NW13      30.55R WCI -29
WILLISTON      SUNNY     -7 -14  71 E3        30.60R
DICKINSON      SUNNY     -4 -11  72 NW12      30.47R WCI -22
HETTINGER      SUNNY     -3  -9  75 NW10      30.48R WCI -20
$$

 *****  OTHER OBSERVATIONS NORTHEAST NORTH DAKOTA  *****

CITY           SKY/WX    TMP DP  RH WIND       PRES   REMARKS
WALHALLA         N/A      0 -11  60 NW10      30.55S WCI -17
LANGDON        NOT AVBL
CAVALIER       FAIR       0 -11  60 W6        30.56S WCI -12
GRAFTON        NOT AVBL
CANDO          FAIR      -6 -13  71 NW13      30.53R WCI -25
FORT TOTTEN    NOT AVBL
ROLLA          FAIR       0 -11  60 NW15      30.48S WCI -20
RUGBY          FAIR     N/A N/A N/A NW14      30.54S
 ***** THE ABOVE OBSERVATIONS ARE NON NWS ARE NOT QUALITY
        CONTROLLED AND MAY MIS-REPORT RAIN FOR SNOW...
$$

 *****  OTHER OBSERVATIONS SOUTHEAST NORTH DAKOTA *****

CITY           SKY/WX    TMP DP  RH WIND       PRES   REMARKS
COOPERSTOWN    NOT AVBL
VALLEY CITY    FAIR      -6 -13  71 NW9       30.53R WCI -22
OAKES            N/A     -4 -11  71 N16       30.55R WCI -25
GWINNER        SUNNY     -4 -13  65 NW12      30.55S WCI -22
SHEYENNE NWR     N/A     -5 -17  57 N7        29.95  WCI -19
BUFFALO        NOT AVBL
WYNDMERE         N/A     -6 -13  71 NW8         N/A  WCI -21
 ***** THE ABOVE OBSERVATIONS ARE NON NWS ARE NOT QUALITY
       CONTROLLED AND MAY MIS-REPORT RAIN FOR SNOW...
$$

  *****  WEATHER ACROSS NORTHERN MINNESOTA  *****

CITY           SKY/WX    TMP DP  RH WIND       PRES   REMARKS
FLAG ISLAND    SUNNY     -9 -18  64 NW7       30.45S WCI -24
WARROAD        SUNNY     -8 -17  65 NW6       30.47S WCI -21
ROSEAU         SUNNY     -9 -17  70 W8        30.49S WCI -26
HALLOCK        SUNNY     -9 -17  70 NW5       30.55S WCI -21
THF RVR FALLS  SUNNY     -8 -24  45 NW7       30.51R WCI -22
HALSTAD          N/A     -4 -13  66 NW9         N/A  WCI -21
FOSSTON        SUNNY     -8 -17  65 NW9       30.49S WCI -25
BAUDETTE       SUNNY    -12 -21  64 NW8       30.45R WCI -29
WASKISH        SUNNY    -11 -18  70 W6        30.46S WCI -25
CROOKSTON      SUNNY     -6 -11  77 N10       30.57S WCI -23
$$
  *****  WEATHER ACROSS CENTRAL AND WEST MINNESOTA  *****

CITY           SKY/WX    TMP DP  RH WIND       PRES   REMARKS
BEMIDJI        SUNNY    -10 -18  68 NW5       30.44S WCI -22
PARK RAPIDS    SUNNY     -8 -16  67 NW12      30.42R WCI -27
WADENA         SUNNY     -8 -15  71 N13       30.44R WCI -28
DETROIT LAKES  SUNNY     -6 -13  71 N13       30.48S WCI -25
MOORHEAD       SUNNY     -2  -9  71 N14       30.56S WCI -21
FERGUS FALLS   SUNNY     -6 -15  65 N16G25    30.55S WCI -28
ELBOW LAKE     FAIR      -5 -13  67 NW13      30.50R WCI -25
MORRIS MN      SUNNY     -2 -11  65 N14       30.50S WCI -21
STAPLES        SUNNY     -6 -15  65 W9        30.44R WCI -22
WHEATON        SUNNY     -6 -11  77 NW10      30.57R WCI -23
$$
  *****  WEATHER ELSEWHERE ACROSS MINNESOTA  *****

CITY           SKY/WX    TMP DP  RH WIND       PRES   REMARKS
DULUTH         SUNNY     -2 -14  56 NW7       30.35R WCI -15
INTRNTL FALLS  SUNNY     -8 -18  61 NW14      30.42R WCI -29
ELY            SUNNY     -2 -15  55 NW5       30.34S WCI -12
CLOQUET        SUNNY     -2 -15  55 CALM      30.38R
BRAINERD       SUNNY     -5 -15  62 NW3       30.43S
HIBBING        SUNNY     -6 -16  61 NW5       30.38R WCI -17
ALEXANDRIA     SUNNY     -5 -14  65 NW13      30.45R WCI -24
SAINT CLOUD    SUNNY     -3 -13  62 NW10      30.46R WCI -20
MINNEAPOLIS    SUNNY      2 -10  57 N8        30.45S WCI -12
$$

  *****  WEATHER ACROSS SOUTH DAKOTA  *****

CITY           SKY/WX    TMP DP  RH WIND       PRES   REMARKS
SIOUX FALLS    MOSUNNY   -1 -10  65 N12       30.49R WCI -18
BROOKINGS      NOT AVBL
WATERTOWN      SUNNY     -5 -11  75 NW13      30.46R WCI -24
HURON          SUNNY     -5 -12  72 N12       30.57R WCI -23
SISSETON         N/A     -5 -11  75 N16       30.53S WCI -27
ABERDEEN       MOSUNNY   -2 -12  62 N14       30.57R WCI -21
MITCHELL       SUNNY      1  -5  75 N14       30.56S WCI -17
PIERRE         MOSUNNY   -1  -7  75 N12       30.55R WCI -18
MOBRIDGE       SUNNY     -3 -12  65 NW12      30.52R WCI -21
RAPID CITY     MOSUNNY   -1  -6  79 N14       30.42R BLWGSNOWWCI -20
$$

  *****  SOME WEATHER IN NEARBY STATES *****

CITY           SKY/WX    TMP DP  RH WIND       PRES   REMARKS
GLASGOW MT     SUNNY      0 -11  59 CALM      30.57R
GREAT FALLS MT LGT SNOW  10   7  85 NE5       30.33F FOG     WCI   2
CHEYENNE WY    LGT SNOW  10   3  73 NE6       30.10S WCI   0
SCOTTSBLUFF NE CLOUDY    12   3  67 NE6       30.31R WCI   3
OMAHA NE       MOSUNNY    4  -3  73 N20       30.51R WCI -17
DES MOINES IA  MOSUNNY    5  -8  55 NW13      30.43R WCI -12
DAVENPORT IA   PTSUNNY    9  -1  64 N13       30.30R WCI  -7
CHICAGO IL     LGT SNOW  15   9  76 N12       30.21R WCI   2
EAU CLAIRE WI  SUNNY      3  -8  60 N7        30.39R WCI  -9
LA CROSSE WI   SUNNY      6  -6  57 NW9       30.40R WCI  -8
$$

  *****  SOME NATIONAL WEATHER *****

CITY           SKY/WX    TMP DP  RH WIND       PRES   REMARKS
LA GUARDIA NY  CLOUDY    24   7  48 NE13      30.02S WCI  12
RALEIGH NC     CLOUDY    33  28  81 NE9       29.83S
ATLANTA GA     MOSUNNY   38  33  82 NW8       29.91R
NEW ORLEANS LA CLOUDY    41  34  76 N9        30.09R
OKLAHOMA CITY  PTSUNNY   23   7  50 N25G35    30.38R WCI   7
ALBUQUERQUE NM PTSUNNY   37  23  56 E18G26    30.07R
SALT LAKE CITY LGT RAIN  38  29  70 W14       29.99R
LOS ANGELES CA MOSUNNY   55  49  80 SE5       29.96S
BOISE ID       CLOUDY    39  34  81 NW7       30.08R
SEATTLE WA     CLOUDY    46  45  93 S3        30.17S FOG
$$

*** WEATHER ACROSS MANITOBA...SASKATCHEWAN AND ONTARIO ***
                ***ONTARIO***

CITY           SKY/WX    TMP DP  RH WIND       PRES   REMARKS
GERALDTON      MOSUNNY   -8 -18  59 W9        30.20S WCI -25
THUNDER BAY    SUNNY     -4 -15  59 W12       30.37F WCI -22
SIOUX LOOKOUT  PTSUNNY  -11 -18  70 W8        30.33S WCI -28
TORONTO        CLOUDY     9  -6  52 N10       30.13S WCI  -6
BIG TROUT LK   SUNNY     -8 -15  71 NW15      30.13S WCI -29
PICKLE LAKE    MOSUNNY   -9 -18  64 W12       30.18F WCI -29
DRYDEN         SUNNY    -11 -18  70 W12       30.35S WCI -31
KENORA         MOSUNNY  -11 -18  70 NW7       30.40S WCI -26
$$
                *** MANITOBA***

CITY           SKY/WX    TMP DP  RH WIND       PRES   REMARKS
BRANDON        MOSUNNY  -11 -18  70 W12       30.54R WCI -31
DAUPHIN        SUNNY     -2 -11  65 W15G21    30.55S WCI -22
ISLAND LAKE    SUNNY     -8 -17  65 W7        30.31S WCI -22
PILOT MOUND      N/A     -9 -18  64 NW9         N/A  WCI -27
THE PAS        MOSUNNY   -4 -13  65 NW10      30.52F WCI -21
THOMPSON       MOSUNNY    0 -15  50 NW16      30.36S WCI -21
WINNIPEG       SUNNY     -9 -18  64 W10       30.54S WCI -28
LYNN LAKE      SUNNY     -4 -15  59 W13       30.39F WCI -23
CHURCHILL      CRYSTALS  -4 -13  65 NW18G25   30.16R WCI -26
GILLAM         MOSUNNY   -4 -15  59 W12       30.24S WCI -22
$$
                ***SASKATCHEWAN***

CITY           SKY/WX    TMP DP  RH WIND       PRES   REMARKS
ESTEVAN        CRYSTALS -15 -22  70 W12       30.58R WCI -36
KINDERSLEY     SUNNY     -9 -13  84 S3        30.52F
LLOYDMINSTER   SUNNY     -8 -13  77 S10       30.49  WCI -26
PRINCE ALBERT  SUNNY    -11 -17  77 W7        30.61R WCI -26
REGINA         SUNNY    -20 -26  76 W2        30.60S



USA.gov is the U.S. government's official web portal to all federal, state and local government web resources and services.